User: anonymous   Login
Location: Asheville, NC
(35.6000°N, 82.5500°W)
Time: 23:03:55
(UTC-04:00)
Language:

VELOX 1 - Orbit

View from above orbital plane
View from above orbital plane
View from above satellite
View from above satellite

Ground track
Ground track

The orbit data is extracted from the following two-line orbital elements,

1 40057U 14034E   18113.85672604  .00000354  00000-0  57325-4 0  9998
2 40057  98.1968 223.9838 0012133 137.3038 222.9122 14.77393755205625
Epoch (UTC): 23 April 2018 20:33:41
Eccentricity: 0.0012133
inclination: 98.1968°
perigee height: 629 km
apogee height: 646 km
right ascension of ascending node: 223.9838°
argument of perigee: 137.3038°
revolutions per day: 14.77393755
mean anomaly at epoch: 222.9122°
orbit number at epoch: 20562

The dashed part of the orbit path shows where the satellite is in the earth's shadow,  

DLR